Regional Weather Roundup
Issued by NWS

Home | Current Version | Previous Version | Text Only | Print | Product List | Glossary Off
Versions: 1 2 3 4 5 6 7 8 9 10 11 12 13 14 15 16 17 18 19 20 21 22 23 24 25 26 27 28 29 30 31 32 33 34 35 36 37 38 39 40 41 42 43 44 45 46 47 48 49 50

422
ASUS44 KJAN 171710
RWRMS

MISSISSIPPI HOURLY WEATHER ROUNDUP
NATIONAL WEATHER SERVICE JACKSON MS
1200 PM CDT FRI APR 17 2015

NOTE: "FAIR: INDICATES FEW OR NO CLOUDS BELOW 12,000 FEET WITH NO
SIGNIFICANT WEATHER AND/OR OBSTRUCTIONS TO VISIBILITY.

MSZ001>002-007>008-010>013-018>021-025>028-034>036-171800-
NORTHWEST MISSISSIPPI

CITY           SKY/WX    TMP DP  RH WIND       PRES   REMARKS
CLARKSDALE       N/A     68  68 100 CALM      30.06S
CLEVELAND      RAIN      67  67 100 NE8       30.05S
GREENWOOD      CLOUDY    71  65  81 E8        30.03F
GREENVILLE     CLOUDY    70  65  84 NE16      30.03S
OLIVE BRANCH   CLOUDY    64  64 100 SE6       30.09R
OXFORD         CLOUDY    63  63 100 SE7       30.08F FOG
TUNICA         LGT RAIN  68  64  88 E3        30.08R
$$

MSZ003>006-009-014>017-022>024-029>033-037>039-171800-
NORTHEAST MISSISSIPPI

CITY           SKY/WX    TMP DP  RH WIND       PRES   REMARKS
COLUMBUS AFB   RAIN      63  63 100 SE5       30.08S FOG
CORINTH        CLOUDY    64  61  88 E6        30.08S
GOLDN TRIANGLE LGT RAIN  63  61  94 E5        30.07R FOG
STARKVILLE     RAIN      63  63 100 E3        30.07F
TUPELO         RAIN      63  61  93 E5        30.09R FOG
$$

MSZ040-058-171800-
CENTRAL MISSISSIPPI

CITY           SKY/WX    TMP DP  RH WIND       PRES   REMARKS
JACKSON INTL   CLOUDY    73  66  78 E9        30.02F
JACKSON HAWKNS LGT RAIN  73  66  78 S8        30.02F
MERIDIAN KEY   CLOUDY    71  64  78 SE6       30.04F
MERIDIAN NAS   CLOUDY    68  64  87 E5        30.05R
RAYMOND        CLOUDY    73  68  83 E7        30.01F
VICKSBURG      CLOUDY    77  66  68 VRB7      30.01F
$$

MSZ059>079-171800-
SOUTH MISSISSIPPI

CITY           SKY/WX    TMP DP  RH WIND       PRES   REMARKS
BROOKHAVEN       N/A    N/A N/A N/A SE5       30.03F
HATTIESBURG    PTSUNNY   78  69  73 CALM      30.01F
MCCOMB         PTSUNNY   78  69  73 S8        30.01S
NATCHEZ        MOSUNNY   75  66  73 CALM      30.02S
PINE BELT      PTSUNNY   72  66  83 NE5       30.04S
$$

MSZ080>082-171800-
COASTAL MISSISSIPPI

CITY           SKY/WX    TMP DP  RH WIND       PRES   REMARKS
BAY ST LOUIS   RAIN      75  66  73 MISG      30.01S
BILOXI         CLOUDY    73  73 100 SW9       30.00F
PASCAGOULA     RAIN      74  71  91 VRB3      30.00F
GULFPORT       LGT RAIN  74  71  91 S6        30.00F
$$



USA.gov is the U.S. government's official web portal to all federal, state and local government web resources and services.